Salt Flat, TX (79847)

8:07 AM CST on November 19, 2017 (GMT -0600)
Guadalupe Pass | | Change Station

Elev 5453 ft 31.83 °N, 104.80 °W | Updated 16 minutes ago

Partly Cloudy
Partly Cloudy
35 °F
Feels Like 24 °F
N
18
Wind Variable Wind from NE

Today
High -- | Low -- °F
--% Chance of Precip.
Yesterday
High -- | Low -- °F
Precip. -- in
Pressure 30.30 in
Visibility 10.0 miles
Clouds Clear
Windchill 24 °F
Dew Point 15 °F
Humidity 44%
Rainfall 0.00 in
Snow Depth Not available.
7:32 AM 5:58 PM
New Moon, 1% visible
METAR KGDP 191351Z AUTO 05016KT 10SM CLR 02/M09 A3031 RMK AO2 PK WND 05026/1253 SLP260 T00171094
Pressure 30.30 in
Visibility 10.0 miles
Clouds Clear
Windchill 24 °F
Dew Point 15 °F
Humidity 44%
Rainfall 0.00 in
Snow Depth Not available.
7:32 AM 5:58 PM
New Moon, 1% visible
METAR KGDP 191351Z AUTO 05016KT 10SM CLR 02/M09 A3031 RMK AO2 PK WND 05026/1253 SLP260 T00171094

Get Severe Weather Alerts

Thanks for signing up!

Be on the lookout for a verification email in your inbox.

You'll start receiving the daily forecast at 6 AM.

×

10-Day Weather Forecast

Almanac

Astronomy

Nov. 19, 2017 Rise Set
Actual Time
Civil Twilight
Nautical Twilight
Astronomical Twilight
Moon
Length of Visible Light
Length of Day
Tomorrow will be .
, % of the Moon is Illuminated

Today's Extremes

State Highs State Lows

Community

WunderPhotos

Category 6

Welcome to Category 6. This is the collective home for Weather Underground's featured writeups by Dr. Jeff Masters (right), Bob Henson (left), Chris Burt, and other regular contributors.

Nearby

Air Quality

  Air Quality AQ Index Pollutant
Not available.

Snow Depth

Station Depth Elevation

Earthquake Activity

City Distance Mag. Time & Date
Minimum magnitude displayed is 2.5.

Coastal Water Temperatures

Place Temperature

Stations

Nearby Weather Stations

Station Location Temp. Windchill Dew Point Humidity Wind Precip. Elev Updated Type
                   

Watches & Warnings

There are currently no watches in effect.